Change the Weather History Date:

Friday, May 24, 2013

  Actual Average Record
Temperature  
Mean Temperature 69 °F 73 °F  
Max Temperature 83 °F 85 °F 95 °F (1996)
Min Temperature 55 °F 61 °F 45 °F (1892)
Degree Days  
Heating Degree Days 0 0  
Month to date heating degree days 55 16  
Since 1 July heating degree days 2512 2550  
Cooling Degree Days 4 8  
Month to date cooling degree days 115 137  
Year to date cooling degree days 201 220  
Growing Degree Days 20 (Base 50)    
Moisture  
Dew Point 57 °F    
Average Humidity 68    
Maximum Humidity 100    
Minimum Humidity 35    
Precipitation  
Precipitation 0.00 in 0.14 in 1.92 in (1909)
Month to date precipitation 6.30 3.49  
Year to date precipitation 34.10 24.42  
Sea Level Pressure  
Sea Level Pressure 30.15 in    
Wind  
Wind Speed 7 mph (North)    
Max Wind Speed 17 mph    
Max Gust Speed 22 mph    
Visibility 10 miles    
Events      
T = Trace of Precipitation, MM = Missing Value Source: NWS Daily Summary

Daily Weather History Graph

Daily Weather History Graph

Search for Another Location

Airport or City:

Trip Planner

Search our weather history database for the weather conditions in past years. The results will help you decide how hot, cold, wet, or windy it might be!

Date:

Astronomy

May. 24, 2013 Rise Set
Actual Time 5:51 AM CDT 7:52 PM CDT
Civil Twilight 5:24 AM CDT 8:19 PM CDT
Nautical Twilight 4:50 AM CDT 8:53 PM CDT
Astronomical Twilight 4:15 AM CDT 9:29 PM CDT
Moon 7:35 PM CDT (5/24) 5:20 AM CDT (5/24)
Length of Visible Light 14h 55m
Length of Day
14h 00m
Full, 100% of the Moon is Illuminated
May 24
Full
May 24
Full
May 31
Last Quarter
Jun 8
New
Jun 16
First Quarter

Hourly Weather History & Observations

Time (CDT) Temp. Heat Index Dew Point Humidity Pressure Visibility Wind Dir Wind Speed Gust Speed Precip Events Conditions
12:58 AM 64.9 °F - 64.0 °F 97% 30.06 in 10.0 mi Calm Calm - N/A   Clear
1:58 AM 64.9 °F - 63.0 °F 93% 30.05 in 10.0 mi Calm Calm - N/A   Clear
2:58 AM 64.9 °F - 63.0 °F 93% 30.06 in 10.0 mi Calm Calm - N/A   Clear
3:58 AM 64.0 °F - 62.1 °F 93% 30.07 in 10.0 mi NNW 3.5 mph - N/A   Partly Cloudy
4:58 AM 66.0 °F - 62.1 °F 87% 30.09 in 10.0 mi North 5.8 mph - N/A   Clear
5:58 AM 66.0 °F - 60.1 °F 81% 30.12 in 10.0 mi NNE 9.2 mph - N/A   Clear
6:58 AM 66.0 °F - 60.1 °F 81% 30.14 in 10.0 mi NNE 9.2 mph - N/A   Clear
7:58 AM 68.0 °F - 57.9 °F 70% 30.17 in 10.0 mi NE 10.4 mph - N/A   Clear
8:58 AM 72.0 °F - 57.0 °F 59% 30.19 in 10.0 mi NNE 12.7 mph - N/A   Clear
9:58 AM 73.9 °F - 57.0 °F 55% 30.20 in 10.0 mi NNE 11.5 mph - N/A   Clear
10:58 AM 75.9 °F - 57.9 °F 54% 30.21 in 10.0 mi NNE 6.9 mph - N/A   Clear
11:58 AM 78.1 °F - 59.0 °F 52% 30.20 in 10.0 mi North 5.8 mph 16.1 mph N/A   Clear
12:58 PM 79.0 °F - 59.0 °F 50% 30.19 in 10.0 mi Variable 5.8 mph 17.3 mph N/A   Clear
1:58 PM 81.0 °F 81.1 °F 57.9 °F 45% 30.19 in 10.0 mi North 10.4 mph 20.7 mph N/A   Clear
2:43 PM 82.4 °F 82.0 °F 57.2 °F 42% 30.19 in 10.0 mi North 8.1 mph 18.4 mph N/A   Partly Cloudy
2:58 PM 82.0 °F 82.0 °F 57.9 °F 44% 30.18 in 10.0 mi North 9.2 mph 19.6 mph N/A   Clear
3:58 PM 82.9 °F 82.0 °F 55.0 °F 38% 30.17 in 10.0 mi North 11.5 mph - N/A   Clear
4:58 PM 81.0 °F - 52.0 °F 36% 30.16 in 10.0 mi North 10.4 mph - N/A   Clear
5:58 PM 81.0 °F - 50.0 °F 34% 30.15 in 10.0 mi North 12.7 mph 17.3 mph N/A   Clear
6:58 PM 78.1 °F - 48.9 °F 36% 30.15 in 10.0 mi NNE 10.4 mph - N/A   Clear
7:58 PM 71.1 °F - 52.0 °F 51% 30.17 in 10.0 mi North 6.9 mph - N/A   Clear
8:58 PM 66.9 °F - 53.1 °F 61% 30.19 in 10.0 mi ENE 3.5 mph - 0.01 in   Clear
9:58 PM 62.1 °F - 55.9 °F 80% 30.21 in 10.0 mi Calm Calm - N/A   Clear
10:58 PM 59.0 °F - 55.0 °F 87% 30.21 in 10.0 mi Calm Calm - N/A   Clear
11:58 PM 57.0 °F - 54.0 °F 89% 30.20 in 10.0 mi WNW 3.5 mph - N/A   Clear